Flight Track Log - Related Links

Times and Time Zones

All times are in EDT time to prevent confusion due to time zone crossing. See the SWA3939 flight status page for this flight to view local times or setup timezone preferences in your user account.


Time Position Orientation Groundspeed Altitude Reporting Facility
EDT Latitude Longitude Course Direction KTS MPH feet Rate Location/Type
Sat 03:40:14 PM 37.3833 -121.9500 345° North 166 191 1,500  Level Northern Cal TRACON
Sat 03:41:14 PM 37.4333 -121.9667 345° North 225 259 3,200 1,800 Climbing Northern Cal TRACON
Sat 03:42:14 PM 37.4167 -121.9000 107° East 236 272 5,100 1,500 Climbing Northern Cal TRACON
Sat 03:43:14 PM 37.3833 -121.8333 122° Southeast 237 273 6,200 1,900 Climbing Northern Cal TRACON
Sat 03:44:14 PM 37.3333 -121.7833 142° Southeast 256 295 8,900 2,300 Climbing Northern Cal TRACON
Sat 03:45:14 PM 37.2706 -121.7197 141° Southeast 291 335 10,800 2,331 Climbing Oakland Center
Sat 03:46:15 PM 37.1989 -121.6397 138° Southeast 343 395 13,600 2,607 Climbing Oakland Center
Sat 03:47:16 PM 37.1261 -121.5578 138° Southeast 350 403 16,100 2,311 Climbing Oakland Center
Sat 03:48:17 PM 37.0381 -121.4597 138° Southeast 387 445 18,300 1,951 Climbing Oakland Center
Sat 03:49:19 PM 36.9533 -121.3686 139° Southeast 401 461 20,100 2,000 Climbing Oakland Center
Sat 03:50:20 PM 36.8628 -121.2700 139° Southeast 429 494 22,400 2,311 Climbing Oakland Center
Sat 03:51:21 PM 36.7642 -121.1636 139° Southeast 435 501 24,800 2,049 Climbing Oakland Center
Sat 03:52:23 PM 36.6706 -121.0633 139° Southeast 442 509 26,600 1,561 Climbing Oakland Center
Sat 03:53:24 PM 36.5758 -120.9578 138° Southeast 456 525 28,000 1,869 Climbing Oakland Center
Sat 03:54:25 PM 36.4794 -120.8539 139° Southeast 458 527 30,400 2,164 Climbing Oakland Center
Sat 03:55:26 PM 36.3881 -120.7564 139° Southeast 438 504 32,400 1,561 Climbing Oakland Center
Sat 03:56:28 PM 36.2961 -120.6592 140° Southeast 432 497 33,600 1,220 Climbing Oakland Center
Sat 03:57:29 PM 36.2042 -120.5625 140° Southeast 435 501 34,900 1,230 Climbing Oakland Center
Sat 03:58:30 PM 36.1108 -120.4639 140° Southeast 446 513 36,100 984 Climbing Oakland Center
Sat 03:59:31 PM 36.0194 -120.3647 139° Southeast 437 503 36,900 439 Climbing Oakland Center
Sat 04:00:33 PM 35.9103 -120.2531 140° Southeast 426 490 37,000 49 Climbing Oakland Center
Sat 04:01:34 PM 35.8189 -120.1569 140° Southeast 429 494 37,000  Level Oakland Center
Sat 04:02:35 PM 35.7267 -120.0611 140° Southeast 430 495 37,000  Level Oakland Center
Sat 04:03:36 PM 35.6344 -119.9647 140° Southeast 430 495 37,000  Level Oakland Center
Sat 04:04:37 PM 35.5344 -119.8803 145° Southeast 431 496 37,000  Level Oakland Center
Sat 04:05:39 PM 35.4347 -119.7944 145° Southeast 432 497 37,000  Level Oakland Center
Sat 04:06:40 PM 35.3364 -119.7097 145° Southeast 431 496 37,000  Level Oakland Center
Sat 04:07:41 PM 35.2383 -119.6256 145° Southeast 429 494 37,000  Level Oakland Center
Sat 04:07:56 PM 35.2197 -119.6100 146° Southeast 428 493 37,000  Level Los Angeles Center
Sat 04:08:58 PM 35.1214 -119.5250 145° Southeast 430 495 37,000  Level Los Angeles Center
Sat 04:10:12 PM 35.0217 -119.4408 145° Southeast 434 499 37,000  Level Los Angeles Center
Sat 04:11:14 PM 34.8814 -119.3231 145° Southeast 437 503 37,000  Level Los Angeles Center
Sat 04:12:16 PM 34.7833 -119.2378 144° Southeast 435 501 37,000  Level Los Angeles Center
Sat 04:13:18 PM 34.6839 -119.1547 146° Southeast 433 498 37,000  Level Los Angeles Center
Sat 04:14:20 PM 34.5764 -119.0667 146° Southeast 436 502 37,000  Level Los Angeles Center
Sat 04:15:22 PM 34.4756 -118.9817 145° Southeast 440 506 37,000  Level Los Angeles Center
Sat 04:16:24 PM 34.3733 -118.8975 146° Southeast 445 512 37,000 -97 Level Los Angeles Center
Sat 04:17:26 PM 34.2789 -118.7992 139° Southeast 447 514 36,800 -629 Descending Los Angeles Center
Sat 04:18:28 PM 34.1875 -118.7028 139° Southeast 437 503 35,700 -1,016 Descending Los Angeles Center
Sat 04:19:30 PM 34.0778 -118.5872 139° Southeast 437 503 34,700 -871 Descending Los Angeles Center
Sat 04:20:32 PM 34.0036 -118.5083 139° Southeast 444 511 33,900 -919 Descending Los Angeles Center
Sat 04:21:34 PM 33.8967 -118.3833 136° Southeast 442 509 32,800 -1,016 Descending Los Angeles Center
Sat 04:22:36 PM 33.8075 -118.2744 135° Southeast 449 517 31,800 -1,016 Descending Los Angeles Center
Sat 04:23:38 PM 33.7203 -118.1594 132° Southeast 444 511 30,700 -968 Descending Los Angeles Center
Sat 04:24:40 PM 33.6339 -118.0503 134° Southeast 448 516 29,800 -1,694 Descending Los Angeles Center
Sat 04:25:42 PM 33.5472 -117.9414 134° Southeast 450 518 27,200 -2,516 Descending Los Angeles Center
Sat 04:26:44 PM 33.4631 -117.8361 134° Southeast 440 506 24,600 -2,758 Descending Los Angeles Center
Sat 04:27:46 PM 33.3636 -117.7106 133° Southeast 432 497 21,500 -2,777 Descending Los Angeles Center
Sat 04:28:45 PM 33.2833 -117.6167 136° Southeast 406 467 19,000 -2,471 Descending Southern California TRACON
Sat 04:29:45 PM 33.2000 -117.5333 140° Southeast 407 468 16,600 -2,500 Descending Southern California TRACON
Sat 04:30:45 PM 33.1167 -117.4500 140° Southeast 387 445 14,000 -2,400 Descending Southern California TRACON
Sat 04:31:45 PM 33.0333 -117.3833 146° Southeast 365 420 11,800 -1,950 Descending Southern California TRACON
Sat 04:32:45 PM 32.9500 -117.3167 146° Southeast 336 387 10,100 -1,350 Descending Southern California TRACON
Sat 04:33:45 PM 32.8833 -117.2667 148° Southeast 292 336 9,100 -847 Descending Southern California TRACON
Sat 04:34:10 PM 32.8678 -117.2536 145° Southeast 294 338 8,900 -1,295 Descending Los Angeles Center
Sat 04:35:13 PM 32.8019 -117.1831 138° Southeast 276 318 7,200 -912 Descending Los Angeles Center
Sat 04:36:15 PM 32.7733 -117.1336 125° Southeast 258 297 7,000 -194 Descending Los Angeles Center
Sat 04:36:46 PM 32.7667 -117.0667 97° East 230 265 6,900 -1,059 Descending Southern California TRACON
Sat 04:37:40 PM 32.7500 -117.0000 107° East 238 274 5,500 -1,400 Descending Southern California TRACON
Sat 04:38:46 PM 32.7000 -116.9500 140° Southeast 245 282 4,100 -1,095 Descending Southern California TRACON
Sat 04:39:46 PM 32.6833 -117.0167 253° West 205 236 3,200 -942 Descending Southern California TRACON
Sat 04:40:47 PM 32.7000 -117.0667 292° West 176 203 2,200 -893 Descending Southern California TRACON
Sat 04:41:47 PM 32.7167 -117.1167 292° West 147 169 1,400 -780 Descending Southern California TRACON
Sat 04:42:27 PM 32.7217 -117.1414 284° West 147 169 900 -647 Descending Los Angeles Center
Sat 04:43:29 PM 32.7336 -117.1875 287° West 137 158 300 -581 Descending Los Angeles Center
Sat 04:45:00 PM 32.7336 -117.1897 118° Southeast  Level Estimated

Login

Don't have an account? Register now (free) for customized features, flight alerts, and more!